DMSP 5D-2 F13 DEB

Satellite information

Favourite Embed

Satellite Type and Status

DEBRISIN ORBIT

Key statistics

Satellite DMSP 5D-2 F13 DEB at a glance.

Uptime

11123

Days in orbit

Revolutions

≈ 14.3

Per day

Orbit

SSO

Sun Synchronous Orbit

Inclination

98.7

Latest

Satellite identification and parameters

Extended collection of information and parameters for DMSP 5D-2 F13 DEB.

Object identification

Identified? True

Debris? True

Object name: DMSP 5D-2 F13 DEB

International designator: 1995-015FZ

Object number (NORAD): 42259

Object ID (CCSDS): 42259

Country: UNITED STATES OF AMERICA (US)

Current information (Y/N): Y

RCS size: SMALL

Orbital parameters

Period: 100.372 minutes

Inclination: 98.664 deg

SMA: 7154.331 km

Apoapsis: 784.067 km

Periapsis: 768.324 km

RAAN: 276.053 deg

Eccentricy: 0.00110024

Argument of periapsis: 52.5829 deg

Mean anomaly: 307.6355 deg

Mean motion: 14.34660817 rev/day

Mean motion (dot): 0.00006064 rev/day2

B* drag term: 0.0021564132 1/REarth

Two-line elements (TLE)

Creation date: Sept. 4, 2025, 10:13 a.m.

Reference frame: TEME

Reference center: EARTH

Epoch: Sept. 4, 2025, 12:36 a.m. UTC

TLE line 0: 0 DMSP 5D-2 F13 DEB

TLE line 1: 1 42259U 95015FZ 25247.02522649 .00006064 00000-0 21564-2 0 9998

TLE line 2: 2 42259 98.6640 276.0530 0011002 52.5829 307.6355 14.34660817520078

Live tracking on map

Real-time ground track for satellite DMSP 5D-2 F13 DEB.

In-orbit conjunctions

A list of the most updated potential collisions computed for object DMSP 5D-2 F13 DEB.

Target Orbit TCA Probability of collision Miss distance Type
COSMOS 1452 LEO 2025-06-27 06:15:18 0.001620938 234.0 (m) PAYLOAD
COSMOS 968 LEO 2025-04-06 13:17:15 0.000531544 231.0 (m) PAYLOAD
SL-8 R/B LEO 2025-03-01 19:14:24 0.0001280695 130.0 (m) ROCKET BODY
COSMOS 2208 LEO 2024-09-11 04:59:05 0.0002170309 658.0 (m) PAYLOAD

Associated space launch

Military meteorological satellite

DMSP 5D-2 F13 DEB was lifted into orbit during the mission ‘Atlas E | DMSP-5D2 F13’, on board a Atlas E space rocket.

The launch took place on March 24, 1995, 2:05 p.m. from Space Launch Complex 3W.

For more information about the launch, click the button.

Launch to space Atlas E | DMSP-5D2 F13
Atlas E | DMSP-5D2 F13

Agency: N/A

Status: Launch Successful

Launch date: March 24, 1995, 2:05 p.m. UTC

Rocket: Atlas E

Launch pad: Space Launch Complex 3W

Location: Vandenberg SFB, CA, USA

...

Latest news about this satellite

There are no fresh news available about this satellite. Check back as we update our databases every day.


Newsletter sign-up

Weekly statistics, charts and insights to help you stay on top of the space industry.